Time,TemperatureF,DewpointF,PressureIn,WindDirection,WindDirectionDegrees,WindSpeedMPH,WindSpeedGustMPH,Humidity,HourlyPrecipIn,Conditions,Clouds,dailyrainin,SoftwareType,DateUTC
2013-03-07 00:01:00,30.0,25.0,30.37,WNW,303,0.0,5.0,83,0.00,,,0.00,,2013-03-07 06:01:00,
2013-03-07 00:11:00,30.0,25.0,30.37,WNW,303,0.0,5.0,83,0.00,,,0.00,,2013-03-07 06:11:00,
2013-03-07 00:21:00,29.0,25.0,30.37,NW,304,1.0,6.0,83,0.00,,,0.00,,2013-03-07 06:21:00,
2013-03-07 00:32:00,29.0,25.0,30.38,WNW,293,0.0,6.0,83,0.00,,,0.00,,2013-03-07 06:32:00,
2013-03-07 00:42:00,29.0,25.0,30.38,WNW,293,0.0,6.0,83,0.00,,,0.00,,2013-03-07 06:42:00,
2013-03-07 00:52:00,29.0,25.0,30.38,NW,317,0.0,3.0,84,0.00,,,0.00,,2013-03-07 06:52:00,
2013-03-07 01:01:00,29.0,25.0,30.39,NW,319,0.0,4.0,84,0.00,,,0.00,,2013-03-07 07:01:00,
2013-03-07 01:11:00,29.0,25.0,30.39,NW,319,0.0,4.0,84,0.00,,,0.00,,2013-03-07 07:11:00,
2013-03-07 01:21:00,29.0,25.0,30.39,WNW,287,0.0,3.0,83,0.00,,,0.00,,2013-03-07 07:21:00,
2013-03-07 01:32:00,29.0,25.0,30.40,WNW,287,0.0,1.0,84,0.00,,,0.00,,2013-03-07 07:32:00,
2013-03-07 01:42:00,29.0,25.0,30.40,WNW,287,0.0,1.0,84,0.00,,,0.00,,2013-03-07 07:42:00,
2013-03-07 01:53:00,29.0,25.0,30.39,WNW,287,0.0,0.0,83,0.00,,,0.00,,2013-03-07 07:53:00,
2013-03-07 02:02:00,29.0,25.0,30.39,WNW,288,0.0,0.0,84,0.00,,,0.00,,2013-03-07 08:02:00,
2013-03-07 02:12:00,29.0,25.0,30.39,WNW,288,0.0,0.0,84,0.00,,,0.00,,2013-03-07 08:12:00,
2013-03-07 02:22:00,29.0,25.0,30.39,North,355,0.0,2.0,85,0.00,,,0.00,,2013-03-07 08:22:00,
2013-03-07 02:33:00,29.0,25.0,30.39,North,355,0.0,1.0,85,0.00,,,0.00,,2013-03-07 08:33:00,
2013-03-07 02:43:00,29.0,25.0,30.39,North,355,0.0,1.0,85,0.00,,,0.00,,2013-03-07 08:43:00,
2013-03-07 02:54:00,29.0,25.0,30.39,NNW,345,1.0,5.0,85,0.00,,,0.00,,2013-03-07 08:54:00,
2013-03-07 03:03:00,29.0,25.0,30.39,NW,316,0.0,5.0,85,0.00,,,0.00,,2013-03-07 09:03:00,
2013-03-07 03:13:00,29.0,25.0,30.39,NW,316,0.0,5.0,85,0.00,,,0.00,,2013-03-07 09:13:00,
2013-03-07 03:23:00,29.0,25.0,30.39,NW,319,0.0,2.0,86,0.00,,,0.00,,2013-03-07 09:23:00,
2013-03-07 03:32:00,29.0,26.0,30.39,NNW,338,3.0,6.0,87,0.00,,,0.00,,2013-03-07 09:32:00,
2013-03-07 03:42:00,29.0,26.0,30.39,NNW,338,3.0,6.0,87,0.00,,,0.00,,2013-03-07 09:42:00,
2013-03-07 03:53:00,29.0,26.0,30.40,NW,325,0.0,5.0,87,0.00,,,0.00,,2013-03-07 09:53:00,
2013-03-07 04:03:00,29.0,26.0,30.40,NNW,330,0.0,6.0,87,0.00,,,0.00,,2013-03-07 10:03:00,
2013-03-07 04:13:00,29.0,26.0,30.40,NNW,330,0.0,6.0,87,0.00,,,0.00,,2013-03-07 10:13:00,
2013-03-07 04:23:00,29.0,26.0,30.41,NNW,330,0.0,6.0,87,0.00,,,0.00,,2013-03-07 10:23:00,
2013-03-07 04:33:00,29.0,26.0,30.41,NNW,334,0.0,5.0,87,0.00,,,0.00,,2013-03-07 10:33:00,
2013-03-07 04:42:00,29.0,26.0,30.41,NNW,334,0.0,5.0,87,0.00,,,0.00,,2013-03-07 10:42:00,
2013-03-07 04:53:00,29.0,26.0,30.41,NNW,333,2.0,5.0,87,0.00,,,0.00,,2013-03-07 10:53:00,
2013-03-07 05:02:00,29.0,26.0,30.41,NNW,336,3.0,7.0,87,0.00,,,0.00,,2013-03-07 11:02:00,
2013-03-07 05:12:00,29.0,26.0,30.41,NNW,336,3.0,7.0,87,0.00,,,0.00,,2013-03-07 11:12:00,
2013-03-07 05:23:00,29.0,25.0,30.41,NW,324,0.0,0.0,86,0.00,,,0.00,,2013-03-07 11:23:00,
2013-03-07 05:33:00,29.0,26.0,30.42,NNW,328,0.0,0.0,87,0.00,,,0.00,,2013-03-07 11:33:00,
2013-03-07 05:43:00,29.0,26.0,30.42,NNW,328,0.0,0.0,87,0.00,,,0.00,,2013-03-07 11:43:00,
2013-03-07 05:54:00,29.0,26.0,30.42,NNW,340,0.0,0.0,87,0.00,,,0.00,,2013-03-07 11:54:00,
2013-03-07 06:02:00,29.0,26.0,30.42,NNW,340,0.0,0.0,87,0.00,,,0.00,,2013-03-07 12:02:00,
2013-03-07 06:12:00,29.0,26.0,30.42,NNW,340,0.0,0.0,87,0.00,,,0.00,,2013-03-07 12:12:00,
2013-03-07 06:22:00,29.0,26.0,30.42,North,355,0.0,0.0,87,0.00,,,0.00,,2013-03-07 12:22:00,
2013-03-07 06:33:00,29.0,26.0,30.42,North,355,0.0,0.0,87,0.00,,,0.00,,2013-03-07 12:33:00,
2013-03-07 06:42:00,29.0,26.0,30.42,North,355,0.0,0.0,87,0.00,,,0.00,,2013-03-07 12:42:00,
2013-03-07 06:53:00,29.0,26.0,30.43,North,355,0.0,0.0,87,0.00,,,0.00,,2013-03-07 12:53:00,
2013-03-07 07:02:00,29.0,26.0,30.43,North,355,0.0,0.0,87,0.00,,,0.00,,2013-03-07 13:02:00,
2013-03-07 07:12:00,29.0,26.0,30.43,North,355,0.0,0.0,87,0.00,,,0.00,,2013-03-07 13:12:00,
2013-03-07 07:22:00,29.0,26.0,30.44,North,355,0.0,0.0,87,0.00,,,0.00,,2013-03-07 13:22:00,
2013-03-07 07:32:00,30.0,27.0,30.44,North,355,0.0,0.0,87,0.00,,,0.00,,2013-03-07 13:32:00,
2013-03-07 07:42:00,30.0,27.0,30.44,North,355,0.0,0.0,87,0.00,,,0.00,,2013-03-07 13:42:00,
2013-03-07 07:53:00,30.0,27.0,30.44,North,355,0.0,0.0,87,0.00,,,0.00,,2013-03-07 13:53:00,
2013-03-07 08:02:00,30.0,26.0,30.44,North,355,0.0,0.0,86,0.00,,,0.00,,2013-03-07 14:02:00,
2013-03-07 08:12:00,30.0,26.0,30.44,North,355,0.0,0.0,86,0.00,,,0.00,,2013-03-07 14:12:00,
2013-03-07 08:22:00,30.0,26.0,30.45,North,355,0.0,0.0,86,0.00,,,0.00,,2013-03-07 14:22:00,
2013-03-07 08:32:00,30.0,26.0,30.45,East,93,0.0,0.0,86,0.00,,,0.00,,2013-03-07 14:32:00,
2013-03-07 08:42:00,30.0,26.0,30.45,East,93,0.0,0.0,86,0.00,,,0.00,,2013-03-07 14:42:00,
2013-03-07 08:54:00,30.0,26.0,30.45,East,92,0.0,0.0,85,0.00,,,0.00,,2013-03-07 14:54:00,
2013-03-07 09:02:00,31.0,27.0,30.45,East,92,0.0,0.0,85,0.00,,,0.00,,2013-03-07 15:02:00,
2013-03-07 09:12:00,31.0,27.0,30.45,East,92,0.0,0.0,85,0.00,,,0.00,,2013-03-07 15:12:00,
2013-03-07 09:22:00,31.0,27.0,30.47,NNW,338,2.0,5.0,85,0.00,,,0.00,,2013-03-07 15:22:00,
2013-03-07 09:32:00,31.0,27.0,30.47,North,9,1.0,5.0,84,0.00,,,0.00,,2013-03-07 15:32:00,
2013-03-07 09:42:00,31.0,27.0,30.47,North,9,1.0,5.0,84,0.00,,,0.00,,2013-03-07 15:42:00,
2013-03-07 09:53:00,32.0,28.0,30.46,ENE,67,0.0,4.0,84,0.00,,,0.00,,2013-03-07 15:53:00,
2013-03-07 10:02:00,32.0,27.0,30.46,ENE,67,0.0,4.0,83,0.00,,,0.00,,2013-03-07 16:02:00,
2013-03-07 10:12:00,32.0,27.0,30.46,ENE,67,0.0,4.0,83,0.00,,,0.00,,2013-03-07 16:12:00,
2013-03-07 10:23:00,33.0,28.0,30.46,ENE,67,0.0,1.0,82,0.00,,,0.00,,2013-03-07 16:23:00,
2013-03-07 10:32:00,33.0,28.0,30.45,ENE,67,0.0,0.0,82,0.00,,,0.00,,2013-03-07 16:32:00,
2013-03-07 10:42:00,33.0,28.0,30.45,ENE,67,0.0,0.0,82,0.00,,,0.00,,2013-03-07 16:42:00,
2013-03-07 10:53:00,33.0,27.0,30.46,ENE,78,2.0,5.0,79,0.00,,,0.00,,2013-03-07 16:53:00,
2013-03-07 11:02:00,33.0,26.0,30.46,WSW,238,0.0,5.0,76,0.00,,,0.00,,2013-03-07 17:02:00,
2013-03-07 11:12:00,33.0,26.0,30.46,WSW,238,0.0,5.0,76,0.00,,,0.00,,2013-03-07 17:12:00,
2013-03-07 11:22:00,34.0,27.0,30.46,ENE,64,0.0,7.0,76,0.00,,,0.00,,2013-03-07 17:22:00,
2013-03-07 11:32:00,34.0,27.0,30.46,ENE,64,0.0,7.0,76,0.00,,,0.00,,2013-03-07 17:32:00,
2013-03-07 11:43:00,34.0,27.0,30.46,ENE,64,0.0,7.0,76,0.00,,,0.00,,2013-03-07 17:43:00,
2013-03-07 11:54:00,34.0,27.0,30.47,East,95,0.0,0.0,75,0.00,,,0.00,,2013-03-07 17:54:00,
2013-03-07 12:03:00,34.0,28.0,30.46,ENE,78,2.0,6.0,77,0.00,,,0.00,,2013-03-07 18:03:00,
2013-03-07 12:12:00,34.0,28.0,30.46,ENE,78,2.0,6.0,77,0.00,,,0.00,,2013-03-07 18:12:00,
2013-03-07 12:22:00,35.0,28.0,30.46,ENE,78,0.0,0.0,74,0.00,,,0.00,,2013-03-07 18:22:00,
2013-03-07 12:32:00,35.0,28.0,30.45,ENE,75,0.0,4.0,75,0.00,,,0.00,,2013-03-07 18:32:00,
2013-03-07 12:42:00,35.0,28.0,30.45,ENE,75,0.0,4.0,75,0.00,,,0.00,,2013-03-07 18:42:00,
2013-03-07 12:53:00,35.0,28.0,30.45,ENE,75,0.0,0.0,74,0.00,,,0.00,,2013-03-07 18:53:00,
2013-03-07 13:03:00,35.0,28.0,30.44,SSE,167,0.0,7.0,75,0.00,,,0.00,,2013-03-07 19:03:00,
2013-03-07 13:12:00,35.0,28.0,30.44,SSE,167,0.0,7.0,75,0.00,,,0.00,,2013-03-07 19:12:00,
2013-03-07 13:23:00,35.0,28.0,30.43,SE,142,0.0,5.0,76,0.00,,,0.00,,2013-03-07 19:23:00,
2013-03-07 13:34:00,35.0,29.0,30.42,SE,135,4.0,8.0,77,0.00,,,0.00,,2013-03-07 19:34:00,
2013-03-07 13:43:00,35.0,29.0,30.42,SE,135,4.0,8.0,77,0.00,,,0.00,,2013-03-07 19:43:00,
2013-03-07 13:53:00,35.0,28.0,30.42,South,190,0.0,5.0,75,0.00,,,0.00,,2013-03-07 19:53:00,
2013-03-07 14:02:00,35.0,28.0,30.42,SE,136,2.0,5.0,75,0.00,,,0.00,,2013-03-07 20:02:00,
2013-03-07 14:13:00,35.0,28.0,30.42,SE,136,2.0,5.0,75,0.00,,,0.00,,2013-03-07 20:13:00,
2013-03-07 14:22:00,36.0,29.0,30.42,SE,138,0.0,6.0,74,0.00,,,0.00,,2013-03-07 20:22:00,
2013-03-07 14:33:00,36.0,29.0,30.42,SSE,167,3.0,7.0,74,0.00,,,0.00,,2013-03-07 20:33:00,
2013-03-07 14:42:00,36.0,29.0,30.42,SSE,167,3.0,7.0,74,0.00,,,0.00,,2013-03-07 20:42:00,
2013-03-07 14:54:00,36.0,28.0,30.42,SSW,194,0.0,2.0,73,0.00,,,0.00,,2013-03-07 20:54:00,
2013-03-07 15:02:00,36.0,29.0,30.41,South,191,4.0,10.0,75,0.00,,,0.00,,2013-03-07 21:02:00,
2013-03-07 15:12:00,36.0,29.0,30.41,South,191,4.0,10.0,75,0.00,,,0.00,,2013-03-07 21:12:00,
2013-03-07 15:22:00,36.0,29.0,30.42,South,178,4.0,6.0,76,0.00,,,0.00,,2013-03-07 21:22:00,
2013-03-07 15:32:00,36.0,29.0,30.42,SSE,147,0.0,7.0,75,0.00,,,0.00,,2013-03-07 21:32:00,
2013-03-07 15:42:00,36.0,29.0,30.42,SSE,147,0.0,7.0,75,0.00,,,0.00,,2013-03-07 21:42:00,
2013-03-07 16:01:00,36.0,28.0,30.42,SSE,157,0.0,5.0,72,0.00,,,0.00,,2013-03-07 22:01:00,
2013-03-07 16:12:00,36.0,28.0,30.42,SSE,157,0.0,5.0,72,0.00,,,0.00,,2013-03-07 22:12:00,
2013-03-07 16:22:00,36.0,29.0,30.42,ESE,120,4.0,8.0,74,0.00,,,0.00,,2013-03-07 22:22:00,
2013-03-07 16:32:00,36.0,29.0,30.42,ESE,120,4.0,8.0,74,0.00,,,0.00,,2013-03-07 22:32:00,
2013-03-07 16:43:00,36.0,29.0,30.42,ESE,120,4.0,8.0,74,0.00,,,0.00,,2013-03-07 22:43:00,
2013-03-07 16:54:00,36.0,29.0,30.41,ESE,121,2.0,7.0,75,0.00,,,0.00,,2013-03-07 22:54:00,
2013-03-07 17:02:00,36.0,29.0,30.42,ESE,115,1.0,7.0,74,0.00,,,0.00,,2013-03-07 23:02:00,
2013-03-07 17:22:00,36.0,29.0,30.42,SE,134,2.0,6.0,76,0.00,,,0.00,,2013-03-07 23:22:00,
2013-03-07 17:33:00,36.0,29.0,30.42,NE,38,2.0,6.0,74,0.00,,,0.00,,2013-03-07 23:33:00,
2013-03-07 17:43:00,36.0,29.0,30.42,NE,38,2.0,6.0,74,0.00,,,0.00,,2013-03-07 23:43:00,
2013-03-07 17:54:00,36.0,29.0,30.43,SSE,149,1.0,4.0,75,0.00,,,0.00,,2013-03-07 23:54:00,
2013-03-07 18:03:00,36.0,29.0,30.43,NE,53,0.0,4.0,77,0.00,,,0.00,,2013-03-08 00:03:00,
2013-03-07 18:12:00,36.0,29.0,30.43,NE,53,0.0,4.0,77,0.00,,,0.00,,2013-03-08 00:12:00,
2013-03-07 18:23:00,36.0,29.0,30.43,ENE,62,0.0,4.0,77,0.00,,,0.00,,2013-03-08 00:23:00,
2013-03-07 18:33:00,35.0,29.0,30.43,ESE,123,4.0,6.0,78,0.00,,,0.00,,2013-03-08 00:33:00,
2013-03-07 18:43:00,35.0,29.0,30.43,ESE,123,4.0,6.0,78,0.00,,,0.00,,2013-03-08 00:43:00,
2013-03-07 18:53:00,35.0,29.0,30.43,ESE,120,0.0,6.0,77,0.00,,,0.00,,2013-03-08 00:53:00,
2013-03-07 19:02:00,35.0,29.0,30.43,ESE,119,0.0,0.0,77,0.00,,,0.00,,2013-03-08 01:02:00,
2013-03-07 19:11:00,35.0,29.0,30.43,ESE,119,0.0,0.0,77,0.00,,,0.00,,2013-03-08 01:11:00,
2013-03-07 19:21:00,35.0,29.0,30.43,ESE,119,0.0,0.0,78,0.00,,,0.00,,2013-03-08 01:21:00,
2013-03-07 19:32:00,35.0,30.0,30.43,ESE,119,0.0,0.0,81,0.00,,,0.00,,2013-03-08 01:32:00,
2013-03-07 19:42:00,35.0,30.0,30.43,ESE,119,0.0,0.0,81,0.00,,,0.00,,2013-03-08 01:42:00,
2013-03-07 19:52:00,35.0,29.0,30.43,SE,125,0.0,2.0,79,0.00,,,0.00,,2013-03-08 01:52:00,
2013-03-07 20:01:00,35.0,30.0,30.42,ESE,107,1.0,3.0,81,0.00,,,0.00,,2013-03-08 02:01:00,
2013-03-07 20:11:00,35.0,29.0,30.42,ESE,113,0.0,5.0,80,0.00,,,0.00,,2013-03-08 02:11:00,
2013-03-07 20:22:00,35.0,29.0,30.42,ESE,113,0.0,5.0,80,0.00,,,0.00,,2013-03-08 02:22:00,
2013-03-07 20:32:00,34.0,29.0,30.42,ESE,113,0.0,4.0,82,0.00,,,0.00,,2013-03-08 02:32:00,
2013-03-07 20:42:00,34.0,29.0,30.42,ESE,113,0.0,4.0,82,0.00,,,0.00,,2013-03-08 02:42:00,
2013-03-07 20:53:00,34.0,29.0,30.42,East,94,1.0,5.0,82,0.00,,,0.00,,2013-03-08 02:53:00,
2013-03-07 21:02:00,34.0,29.0,30.42,East,94,0.0,0.0,82,0.00,,,0.00,,2013-03-08 03:02:00,
2013-03-07 21:12:00,34.0,29.0,30.42,East,94,0.0,0.0,82,0.00,,,0.00,,2013-03-08 03:12:00,
2013-03-07 21:22:00,34.0,29.0,30.42,East,100,0.0,5.0,81,0.00,,,0.00,,2013-03-08 03:22:00,
2013-03-07 21:32:00,33.0,28.0,30.42,East,82,0.0,5.0,82,0.00,,,0.00,,2013-03-08 03:32:00,
2013-03-07 21:42:00,33.0,28.0,30.42,East,82,0.0,5.0,82,0.00,,,0.00,,2013-03-08 03:42:00,
2013-03-07 21:53:00,33.0,28.0,30.42,East,90,0.0,0.0,82,0.00,,,0.00,,2013-03-08 03:53:00,
2013-03-07 22:01:00,33.0,29.0,30.42,East,91,0.0,0.0,84,0.00,,,0.00,,2013-03-08 04:01:00,
2013-03-07 22:11:00,33.0,29.0,30.42,East,91,0.0,0.0,84,0.00,,,0.00,,2013-03-08 04:11:00,
2013-03-07 22:22:00,32.0,28.0,30.42,East,91,0.0,0.0,84,0.00,,,0.00,,2013-03-08 04:22:00,
2013-03-07 22:32:00,31.0,27.0,30.42,East,91,0.0,0.0,84,0.00,,,0.00,,2013-03-08 04:32:00,
2013-03-07 22:42:00,31.0,27.0,30.42,East,91,0.0,0.0,84,0.00,,,0.00,,2013-03-08 04:42:00,
2013-03-07 22:52:00,31.0,28.0,30.43,East,91,0.0,0.0,87,0.00,,,0.00,,2013-03-08 04:52:00,
2013-03-07 23:02:00,31.0,27.0,30.43,East,91,0.0,0.0,85,0.00,,,0.00,,2013-03-08 05:02:00,
2013-03-07 23:12:00,31.0,27.0,30.43,East,91,0.0,0.0,85,0.00,,,0.00,,2013-03-08 05:12:00,
2013-03-07 23:22:00,31.0,27.0,30.43,East,91,0.0,0.0,85,0.00,,,0.00,,2013-03-08 05:22:00,
2013-03-07 23:32:00,31.0,27.0,30.43,East,91,0.0,0.0,85,0.00,,,0.00,,2013-03-08 05:32:00,
2013-03-07 23:42:00,31.0,27.0,30.43,East,91,0.0,0.0,85,0.00,,,0.00,,2013-03-08 05:42:00,
2013-03-07 23:52:00,29.0,26.0,30.43,East,91,0.0,0.0,87,0.00,,,0.00,,2013-03-08 05:52:00,